Temperature
26 27 27 27 27 26 26 26 25 24 23 22 23 23 22 20 19 19 19 18 18 17 17 16 15 14 14 13 13 13 13 13 12 13 13 13 13 13 13 13 13 13 13 14
27 26 26 25 25 25 26 25 25 23 22 22 23 23 23 21 20 19 19 19 18 17 17 16 15 15 14 14 13 13 13 13 12 12 12 12 12 12 12 13 13 13 13 13
27 25 25 25 25 25 25 25 24 23 22 22 22 23 22 21 20 19 18 18 18 17 17 16 15 15 14 14 13 13 13 12 12 12 12 12 12 12 12 13 13 13 13 13
25 24 25 25 24 25 24 23 23 22 23 23 22 23 23 22 21 20 19 18 18 17 16 16 15 15 14 14 13 13 13 12 12 12 12 12 12 12 12 12 12 13 13 13
24 24 25 24 23 24 23 22 22 22 23 23 23 23 24 22 22 22 20 19 18 17 16 15 15 14 14 13 13 13 12 12 12 11 11 11 12 12 12 12 12 12 12 13
23 23 24 23 22 22 22 22 22 22 23 23 23 23 23 23 22 22 20 19 18 17 16 16 15 14 14 14 13 13 12 12 12 11 11 11 11 11 12 12 12 12 12 12
23 23 22 22 22 22 23 23 23 23 23 23 22 22 23 23 22 21 20 19 18 17 16 16 15 15 14 14 13 13 13 12 12 11 11 11 11 11 11 11 11 12 12 12
24 23 23 23 23 23 23 23 23 23 24 24 22 23 24 22 20 19 19 19 18 17 16 16 15 15 14 14 14 13 13 12 12 11 11 11 11 11 11 11 11 11 11 11
25 23 22 21 22 23 23 23 23 23 23 23 24 24 24 22 21 20 19 18 18 17 16 16 15 15 15 14 14 13 13 13 12 12 11 11 11 11 11 11 11 11 11 11
26 24 22 21 21 20 22 22 22 22 23 23 23 23 24 23 22 22 20 19 18 17 17 16 16 15 15 14 14 14 13 13 12 12 11 11 11 11 10 10 10 11 11 11
26 25 22 22 22 23 21 21 22 22 22 22 23 24 23 23 22 22 21 19 18 17 17 16 16 15 15 15 14 14 14 13 13 12 12 11 11 11 10 10 10 10 10 10
24 25 24 23 21 21 22 22 22 22 22 21 22 23 23 22 21 20 20 19 18 17 16 16 16 15 15 15 15 14 14 13 13 12 12 11 11 11 11 11 10 10 10 10
23 24 24 22 21 21 21 21 21 21 22 22 22 23 22 22 21 20 19 19 18 17 16 16 16 16 15 15 15 15 14 14 13 13 12 12 11 11 11 10 10 10 10 10
22 24 24 24 24 23 21 20 20 21 22 22 22 23 23 23 22 21 20 19 18 18 17 17 16 16 16 15 15 15 14 14 13 13 12 12 11 11 11 10 10 10 10 10
23 24 24 23 22 22 22 21 20 21 22 23 23 22 23 23 22 21 20 19 18 18 17 17 16 16 16 16 15 15 15 14 14 13 12 12 11 11 10 10 10 10 10 10
23 23 23 23 22 22 22 22 21 21 21 21 22 22 23 22 21 21 21 20 19 19 18 17 17 17 16 16 16 15 15 14 14 13 12 12 11 11 10 10 10 10 9 9
23 23 23 24 22 22 23 24 22 22 22 22 22 23 23 22 22 21 20 20 19 19 18 17 17 17 17 17 16 16 15 14 14 13 13 12 11 11 11 10 10 10 9 9
23 23 23 23 23 22 25 24 23 22 22 22 22 22 22 21 20 19 19 19 19 19 18 17 17 17 17 16 16 15 15 15 14 14 13 12 12 11 11 10 10 10 10 9
22 22 23 23 23 24 23 23 22 23 23 23 23 23 22 21 21 22 20 19 19 19 18 18 17 17 17 17 16 16 16 15 15 14 13 13 12 12 11 11 10 10 10 10
20 22 23 22 23 23 24 23 22 23 23 23 23 23 22 21 24 23 20 19 19 19 18 18 17 17 17 16 16 16 16 16 15 14 14 13 13 12 12 11 11 10 10 10
21 21 22 22 23 24 23 21 22 23 24 22 22 22 22 22 22 20 19 19 19 19 19 18 18 17 17 16 16 16 16 16 15 15 14 14 13 13 12 12 11 11 10 10
23 22 22 22 22 23 21 21 23 23 21 21 21 21 20 20 19 19 18 19 19 19 19 19 18 18 17 17 16 16 16 16 15 15 15 14 14 13 13 12 12 11 11 11
23 23 23 23 23 20 18 20 18 17 19 20 19 19 19 19 19 18 18 18 19 19 18 19 18 18 17 17 17 16 16 16 15 15 15 15 14 14 14 13 12 12 11 11
23 20 21 22 22 19 17 16 15 16 17 17 17 18 18 18 18 17 17 18 18 18 18 18 18 18 17 17 16 17 16 16 16 16 15 15 15 14 14 14 13 12 12 12
23 20 21 22 21 18 16 15 15 15 15 15 16 17 17 17 17 17 17 17 17 17 17 18 17 17 17 17 16 16 16 16 16 16 15 15 15 15 15 14 14 13 13 12
22 21 22 23 22 21 19 15 14 14 14 14 15 15 16 16 15 15 16 16 16 16 16 16 16 16 16 16 16 16 16 16 16 15 15 15 15 15 15 15 14 14 14 13
Wind_Speed
6 8 8 7 4 2 2 5 5 1 1 5 8 9 6 8 10 9 8 6 5 4 4 6 6 7 8 9 10 10 11 11 10 9 9 8 8 7 7 6 8 8 8 8
9 7 4 5 5 4 2 4 3 2 1 4 7 9 6 8 11 10 9 8 6 4 4 5 6 7 8 9 9 10 11 11 10 9 8 8 8 7 7 7 7 8 8 8
9 7 7 7 7 4 1 3 3 2 2 4 6 6 5 6 9 9 9 9 7 5 5 5 6 7 7 8 9 9 10 10 10 10 8 8 7 6 7 8 7 8 8 7
7 7 8 7 4 1 1 2 1 2 5 2 3 3 3 3 7 10 11 10 8 5 4 4 5 6 8 8 8 9 9 9 9 9 9 9 8 7 8 8 7 8 8 8
7 7 6 4 3 1 3 3 1 3 5 5 4 5 1 2 4 5 8 9 8 6 4 4 5 6 7 7 7 7 7 7 8 8 8 8 8 7 7 7 8 8 7 8
8 4 3 4 4 3 5 4 3 4 5 4 1 4 2 1 2 2 2 6 8 6 5 4 4 5 6 6 6 6 6 7 7 7 7 8 9 9 9 9 9 8 7 7
7 5 4 3 4 4 5 5 4 5 4 1 2 4 3 2 2 4 3 3 5 6 5 4 4 5 6 6 6 6 6 6 6 7 7 7 8 8 8 9 8 8 8 7
8 6 4 2 1 2 2 5 4 3 2 0 3 4 1 1 2 3 4 4 5 6 6 5 5 5 5 6 6 6 6 6 6 6 7 7 7 6 6 7 8 8 7 8
5 5 4 3 1 1 2 2 3 4 3 3 2 2 2 2 3 4 5 5 6 6 6 6 5 5 5 6 6 5 6 5 5 5 6 6 7 7 7 7 7 7 7 8
3 5 6 4 4 3 2 1 3 3 3 2 2 3 1 1 2 2 4 6 7 7 7 6 5 5 5 6 6 6 5 5 5 5 5 5 6 6 6 7 8 9 9 8
3 5 6 6 5 3 4 3 3 3 3 3 2 1 2 2 3 5 4 4 6 7 8 7 6 6 5 6 6 6 5 5 5 5 5 5 5 6 6 6 7 8 8 8
1 4 5 4 2 1 3 3 4 4 2 3 3 1 3 3 5 6 7 5 5 7 8 7 7 7 6 6 6 6 5 5 4 4 5 5 5 6 6 6 7 8 8 8
5 4 5 5 5 5 5 4 5 3 3 3 3 0 3 3 6 6 7 6 6 7 8 8 8 7 7 6 6 5 6 5 4 4 5 5 5 6 7 7 7 7 7 8
3 5 6 3 2 5 6 7 8 7 4 4 5 6 6 7 6 5 4 5 7 8 8 8 8 8 7 6 6 6 5 5 5 5 5 5 5 6 6 7 7 7 7 8
4 6 5 2 1 3 5 8 11 11 7 5 5 8 10 8 6 6 4 4 6 8 9 9 9 8 7 7 7 6 5 4 5 5 6 5 5 5 6 6 6 7 7 8
5 5 5 6 4 5 7 9 11 11 9 9 10 9 4 5 5 5 5 4 6 7 9 9 9 9 8 7 6 5 5 4 5 5 6 5 5 5 6 6 7 7 7 8
7 6 6 5 5 4 9 11 12 7 8 7 5 3 5 7 6 6 5 5 6 6 7 8 8 8 7 7 6 5 5 4 5 5 5 4 5 5 6 6 6 7 8 8
7 7 4 3 6 6 2 5 7 7 6 8 7 7 7 7 7 6 6 6 6 5 6 7 7 8 7 7 6 5 5 5 5 5 4 4 4 5 5 6 6 7 7 8
4 6 5 4 5 5 3 6 7 6 5 6 6 4 4 4 4 1 2 3 5 4 4 5 6 7 7 6 6 6 6 5 5 5 5 5 4 5 5 6 7 7 7 8
3 5 6 5 5 5 5 8 5 5 6 4 4 2 2 3 1 3 4 4 3 4 4 4 5 7 7 7 6 7 7 6 6 6 5 5 5 6 6 7 7 6 6 7
8 6 9 9 6 4 5 7 6 6 4 4 3 2 2 2 4 5 5 5 4 3 3 4 5 6 7 7 7 8 8 8 6 6 6 7 7 7 7 7 7 7 7 7
10 8 8 7 8 5 7 8 7 2 4 2 2 2 2 3 4 4 4 5 4 3 2 3 5 6 6 7 8 10 9 8 6 7 8 9 9 8 7 8 8 7 7 8
8 7 5 7 3 4 4 3 1 1 2 1 2 1 2 2 2 3 4 5 5 4 3 3 4 6 6 6 8 10 10 8 8 9 10 10 10 10 9 9 9 8 7 7
8 5 5 6 6 5 4 3 2 3 4 2 1 0 1 1 2 3 4 5 6 6 5 4 4 5 6 6 6 9 10 9 10 11 11 10 11 11 10 9 9 8 8 7
7 9 7 7 5 6 6 6 4 4 4 4 4 4 4 4 4 5 5 7 7 7 7 6 5 6 7 7 6 7 8 9 10 11 12 12 11 11 10 10 9 10 10 9
9 9 9 9 10 9 8 9 8 7 7 6 7 7 7 6 6 6 7 7 8 8 8 8 8 8 8 8 8 9 9 9 10 11 11 10 10 9 10 10 10 13 14 10
Wind_Direction
170 192 197 192 209 294 274 273 286 342 154 241 257 266 237 204 216 226 231 239 260 298 341 355 353 351 351 355 353 355 356 357 356 354 351 348 346 342 345 343 341 328 319 310
171 179 129 121 137 161 215 272 284 159 143 263 278 273 257 220 225 234 241 244 252 279 319 344 348 353 351 351 350 353 358 358 357 356 347 342 341 339 347 344 343 342 334 324
193 131 138 145 148 163 192 300 304 276 198 226 285 262 216 216 226 233 240 247 251 269 307 331 341 346 341 346 349 348 353 353 358 356 351 349 353 348 358 355 353 350 348 342
111 127 150 152 134 256 187 92 180 230 260 265 284 297 168 199 227 234 235 234 240 247 277 308 324 336 339 345 344 343 351 355 358 355 360 358 358 356 352 348 351 353 3 2
121 139 155 143 99 15 95 113 197 250 267 271 226 272 169 172 252 245 235 231 233 238 257 286 311 326 332 336 339 340 346 351 357 357 359 353 1 355 353 354 359 2 7 6
107 104 76 102 95 93 135 160 173 216 245 250 207 272 274 180 313 320 236 224 223 228 239 265 295 312 324 333 338 340 343 349 353 351 355 360 356 354 357 359 359 357 0 1
128 117 105 133 147 149 204 244 239 218 217 215 125 262 276 30 306 281 273 233 215 221 235 256 282 307 323 331 336 335 339 346 349 350 352 355 353 349 355 354 355 352 353 356
171 155 132 147 255 208 215 263 281 292 296 206 201 251 339 76 277 259 248 239 218 219 232 252 273 292 307 319 323 325 330 335 344 346 349 350 348 343 349 350 346 348 348 349
188 137 116 94 91 237 201 224 330 289 288 268 214 250 263 177 237 236 238 231 227 224 229 245 264 280 299 311 314 309 310 320 332 339 342 345 346 344 342 339 341 344 346 344
165 146 150 140 149 67 351 155 218 254 280 276 239 242 301 252 311 263 246 240 234 229 231 242 255 267 288 300 300 297 291 302 313 322 333 337 339 341 336 333 342 341 342 344
190 177 157 183 217 204 170 195 232 253 273 291 305 101 71 314 317 306 292 259 238 228 231 240 251 266 284 291 290 291 286 289 300 307 320 322 334 335 333 336 339 335 336 340
158 227 191 173 116 353 238 237 230 260 243 266 285 281 119 264 292 288 283 264 235 226 228 237 248 261 275 287 293 296 290 283 287 292 302 311 325 324 328 336 336 334 338 338
161 209 193 176 184 191 210 209 220 244 257 243 263 1 126 270 291 284 269 256 231 221 223 230 239 252 268 281 289 291 287 281 275 275 289 304 318 324 330 331 334 330 334 333
207 223 243 270 101 165 189 193 204 216 241 254 251 291 315 323 325 317 279 248 232 222 223 229 236 245 259 273 283 294 292 279 271 269 280 299 313 319 324 330 327 327 329 329
222 233 224 225 150 202 217 202 201 219 243 267 293 296 305 323 323 315 296 255 230 227 225 228 235 243 253 264 275 291 296 280 266 269 279 293 304 308 315 321 321 320 320 322
213 224 205 207 205 229 241 228 215 227 245 256 277 288 296 314 300 292 279 255 241 234 229 230 233 240 248 256 266 280 286 280 270 272 280 289 296 305 309 318 321 321 320 321
193 207 213 212 185 230 245 220 204 207 214 230 251 316 332 314 314 306 301 274 260 250 235 231 233 238 248 258 268 282 301 295 277 278 282 286 294 302 308 316 315 315 315 318
196 200 216 219 196 228 119 118 179 200 218 223 252 286 303 307 305 289 280 273 271 256 238 231 231 233 240 248 253 269 276 274 273 278 282 283 285 292 298 304 310 313 316 317
226 202 216 223 224 235 182 176 180 193 186 199 231 270 309 317 278 138 37 289 272 267 248 237 233 234 237 244 252 260 265 268 274 278 275 273 273 280 291 301 308 315 315 315
186 224 229 222 232 229 159 143 166 196 185 172 212 259 315 293 307 47 23 347 308 271 249 239 230 232 237 242 246 257 268 269 270 269 263 262 263 270 279 290 299 306 305 308
188 204 222 227 237 240 133 144 167 203 164 144 198 247 263 272 345 354 343 334 323 301 262 240 235 236 238 240 241 252 263 267 269 259 254 252 252 258 267 277 282 287 294 300
195 195 204 208 221 215 142 168 197 102 99 155 205 243 273 292 322 339 348 349 341 323 299 258 246 246 242 239 243 255 264 273 268 252 248 249 250 252 255 257 267 276 282 287
211 213 207 212 217 89 159 191 41 304 236 216 233 265 278 281 338 0 5 7 3 350 334 298 271 268 261 248 248 261 271 274 263 254 250 251 252 249 249 254 259 265 268 277
196 192 207 220 222 195 186 201 217 237 236 239 230 233 195 115 44 35 30 22 16 11 1 340 309 291 289 282 267 269 281 281 269 262 263 259 256 254 247 245 252 257 263 269
188 182 206 222 188 177 200 198 186 172 163 144 119 97 86 89 67 51 44 33 23 18 12 4 349 334 326 321 308 300 296 289 278 272 269 267 261 259 260 253 245 250 252 254
193 192 200 221 196 190 183 167 168 161 149 140 127 106 85 77 72 64 54 39 30 24 19 15 9 358 349 345 339 335 324 306 290 282 278 274 269 262 259 259 253 231 237 234
Height
1534 1533 1534 1534 1536 1538 1539 1541 1544 1548 1552 1553 1551 1550 1552 1558 1560 1561 1562 1563 1563 1564 1564 1562 1561 1559 1556 1554 1551 1548 1545 1541 1538 1534 1531 1527 1525 1522 1520 1517 1515 1513 1512 1511
1532 1534 1537 1538 1540 1540 1540 1543 1545 1551 1553 1552 1549 1549 1549 1554 1557 1558 1559 1560 1561 1562 1562 1561 1560 1558 1556 1553 1551 1548 1545 1541 1538 1534 1531 1528 1525 1522 1519 1516 1514 1512 1510 1509
1525 1537 1540 1540 1541 1542 1544 1545 1547 1550 1553 1553 1552 1546 1547 1551 1554 1556 1558 1558 1559 1560 1560 1560 1559 1557 1555 1553 1550 1548 1544 1541 1538 1535 1531 1528 1525 1522 1519 1516 1513 1511 1509 1507
1534 1539 1540 1540 1543 1542 1547 1549 1550 1552 1552 1548 1553 1549 1543 1545 1550 1552 1554 1556 1557 1558 1559 1558 1558 1556 1554 1552 1549 1547 1544 1541 1538 1535 1531 1528 1525 1522 1519 1516 1513 1511 1508 1506
1538 1540 1540 1542 1546 1545 1548 1551 1551 1551 1550 1549 1549 1550 1540 1545 1545 1546 1549 1552 1555 1556 1557 1557 1556 1555 1553 1551 1548 1546 1543 1540 1537 1534 1531 1529 1526 1523 1520 1517 1514 1511 1509 1506
1540 1543 1543 1545 1549 1549 1551 1551 1551 1550 1548 1552 1548 1550 1544 1539 1542 1544 1547 1550 1552 1554 1555 1555 1555 1554 1552 1550 1548 1545 1542 1540 1537 1534 1532 1529 1526 1523 1521 1518 1515 1512 1509 1506
1541 1543 1546 1548 1548 1550 1549 1549 1551 1551 1551 1548 1549 1551 1543 1538 1542 1544 1546 1548 1550 1552 1553 1553 1553 1552 1551 1549 1547 1545 1542 1539 1537 1534 1532 1529 1526 1523 1521 1518 1515 1512 1510 1507
1538 1545 1545 1547 1546 1546 1547 1546 1552 1554 1550 1546 1549 1546 1537 1540 1543 1545 1546 1547 1548 1550 1551 1552 1551 1551 1550 1548 1546 1544 1541 1539 1536 1534 1531 1529 1526 1523 1521 1518 1515 1513 1510 1507
1530 1543 1548 1549 1549 1547 1547 1546 1547 1547 1549 1549 1540 1539 1535 1539 1541 1543 1544 1546 1547 1548 1549 1550 1550 1549 1548 1547 1545 1543 1540 1538 1536 1533 1531 1528 1526 1523 1520 1517 1515 1512 1509 1506
1525 1540 1546 1550 1550 1552 1548 1548 1549 1550 1552 1548 1544 1541 1538 1535 1536 1539 1541 1543 1544 1546 1547 1547 1547 1547 1546 1545 1543 1541 1539 1537 1535 1533 1530 1527 1525 1522 1519 1517 1514 1512 1509 1505
1526 1534 1546 1548 1547 1545 1552 1552 1550 1548 1550 1552 1550 1542 1533 1535 1536 1537 1539 1540 1542 1543 1544 1545 1545 1545 1544 1543 1541 1540 1538 1536 1534 1532 1529 1527 1524 1521 1519 1516 1513 1510 1508 1506
1531 1529 1537 1542 1546 1548 1547 1547 1548 1549 1548 1550 1550 1544 1534 1536 1537 1538 1538 1538 1539 1540 1541 1542 1543 1543 1542 1541 1540 1538 1537 1535 1532 1530 1528 1526 1523 1521 1519 1516 1513 1510 1507 1505
1532 1532 1540 1546 1550 1549 1548 1548 1549 1548 1547 1547 1549 1541 1534 1535 1535 1535 1535 1536 1537 1537 1538 1539 1540 1540 1540 1539 1538 1537 1535 1533 1531 1528 1527 1525 1523 1520 1518 1515 1512 1509 1506 1504
1533 1530 1534 1538 1535 1537 1543 1548 1549 1547 1546 1543 1542 1536 1531 1530 1531 1532 1532 1533 1534 1535 1535 1536 1537 1537 1537 1537 1536 1535 1533 1531 1529 1527 1525 1524 1521 1519 1516 1514 1510 1508 1505 1503
1532 1529 1530 1533 1536 1537 1537 1541 1546 1544 1539 1539 1534 1534 1530 1529 1530 1530 1530 1530 1531 1532 1532 1533 1534 1535 1535 1534 1534 1533 1531 1529 1527 1525 1524 1522 1519 1517 1514 1512 1509 1506 1504 1502
1531 1530 1532 1535 1536 1536 1537 1535 1538 1541 1539 1538 1536 1534 1527 1529 1529 1528 1528 1528 1528 1529 1529 1530 1531 1532 1532 1532 1532 1531 1529 1527 1525 1524 1522 1520 1518 1516 1513 1510 1508 1505 1503 1500
1528 1529 1532 1531 1534 1536 1534 1525 1531 1533 1533 1533 1532 1528 1527 1527 1526 1526 1526 1526 1526 1526 1527 1527 1528 1529 1530 1530 1530 1529 1528 1526 1524 1522 1520 1518 1516 1514 1512 1509 1506 1504 1501 1498
1527 1528 1529 1529 1534 1540 1521 1520 1523 1527 1528 1528 1528 1527 1527 1526 1525 1525 1524 1524 1524 1524 1524 1525 1526 1526 1527 1527 1527 1526 1525 1524 1522 1521 1519 1517 1514 1512 1510 1508 1505 1503 1500 1497
1529 1528 1529 1529 1530 1524 1522 1521 1523 1525 1523 1523 1525 1525 1525 1524 1523 1522 1523 1522 1522 1522 1522 1523 1523 1524 1525 1525 1525 1525 1524 1523 1521 1519 1517 1515 1513 1511 1509 1506 1504 1501 1498 1495
1531 1528 1527 1530 1531 1527 1517 1517 1521 1523 1523 1522 1523 1523 1523 1523 1519 1521 1522 1520 1520 1520 1520 1520 1520 1521 1522 1522 1522 1522 1521 1520 1519 1517 1515 1513 1511 1509 1507 1505 1502 1500 1496 1493
1527 1528 1527 1527 1525 1515 1514 1519 1522 1525 1520 1520 1521 1522 1522 1521 1521 1522 1520 1519 1518 1518 1518 1518 1518 1519 1519 1519 1519 1518 1518 1518 1516 1514 1512 1510 1509 1507 1505 1502 1500 1497 1494 1491
1516 1519 1521 1521 1523 1517 1515 1517 1516 1515 1517 1518 1520 1520 1521 1521 1521 1520 1519 1517 1517 1516 1516 1516 1516 1516 1516 1516 1515 1515 1515 1514 1513 1511 1509 1507 1506 1504 1502 1499 1497 1495 1492 1489
1509 1508 1508 1509 1511 1511 1513 1514 1515 1515 1517 1518 1518 1519 1519 1519 1519 1518 1517 1516 1515 1515 1514 1514 1513 1513 1513 1513 1512 1512 1511 1510 1508 1507 1505 1504 1502 1500 1498 1496 1494 1492 1490 1488
1504 1510 1508 1507 1507 1510 1512 1512 1512 1513 1515 1515 1516 1517 1517 1518 1517 1517 1516 1515 1514 1513 1512 1512 1511 1511 1511 1510 1509 1508 1507 1505 1504 1503 1501 1500 1498 1496 1494 1492 1490 1489 1487 1485
1497 1504 1503 1502 1504 1509 1509 1509 1510 1511 1512 1513 1514 1514 1515 1516 1515 1515 1514 1513 1512 1511 1510 1509 1509 1508 1507 1506 1505 1503 1502 1500 1499 1498 1497 1495 1494 1492 1490 1488 1486 1484 1482 1481
1495 1496 1497 1494 1496 1500 1503 1505 1507 1509 1511 1512 1513 1513 1513 1514 1514 1513 1513 1512 1511 1510 1509 1508 1506 1505 1504 1503 1501 1499 1497 1495 1494 1492 1491 1490 1488 1486 1484 1483 1481 1478 1477 1475